Wetbulb
53.34 48.75 45.75 48.81 50.18 52.21 51.39 49.27 47.98 51.61 54.60 51.78 51.74 52.72 54.70 56.78 57.34 58.74 59.28 58.77 57.67 57.40 61.12 65.64 65.82 66.44 65.75 65.20 65.19 65.34 63.71 63.45 63.04 62.43 61.38 61.20 60.32 61.60 62.14 63.05 63.54 63.52 61.97 62.00
51.37 46.84 52.67 54.81 54.09 53.60 52.08 50.24 49.08 51.53 54.07 53.58 51.91 51.12 55.05 55.27 54.38 54.80 55.61 56.70 56.78 57.26 62.91 64.39 64.75 64.58 64.23 64.51 63.03 61.25 63.53 63.12 63.73 63.75 61.94 60.53 61.27 61.53 61.28 61.83 62.21 61.94 61.29 59.48
47.36 50.71 55.34 53.30 51.95 51.08 50.87 47.92 47.95 48.10 51.97 51.78 51.32 48.59 51.41 55.23 56.01 56.70 57.04 57.91 56.69 57.12 62.08 63.30 63.32 63.45 64.10 63.91 63.20 62.63 61.20 61.51 62.84 60.81 59.97 58.02 59.80 60.26 58.25 58.36 58.12 59.71 59.23 58.20
49.08 54.11 53.31 52.49 51.21 50.95 46.50 52.81 51.24 50.18 46.82 42.10 49.59 38.86 48.09 51.41 51.99 54.69 54.85 57.30 56.54 57.32 60.62 60.24 61.34 62.05 62.60 63.09 61.88 59.56 59.38 58.69 59.94 59.17 56.95 56.64 56.89 55.90 56.56 56.29 58.18 57.48 58.80 58.25
49.06 51.54 50.63 50.09 52.35 53.36 50.38 54.34 51.43 49.72 45.17 42.92 45.36 40.76 46.53 50.60 49.74 51.66 55.24 59.69 60.26 58.03 61.25 61.30 61.78 62.25 61.44 61.82 58.79 57.39 56.74 56.34 56.77 56.67 56.92 58.14 58.06 56.55 57.71 56.89 56.54 55.87 56.19 56.86
50.25 53.35 52.79 52.18 54.43 54.27 55.08 51.39 48.35 44.86 42.75 37.75 42.49 41.61 42.41 46.49 49.92 51.76 55.12 57.78 59.57 59.48 59.19 61.27 61.33 61.83 59.98 60.57 59.09 59.05 58.79 57.63 57.29 56.77 58.53 58.02 56.00 55.88 55.56 54.69 55.62 55.40 54.42 54.30
48.12 49.34 52.44 55.96 51.11 52.55 50.95 45.04 37.21 36.08 36.64 35.50 44.68 42.96 44.93 51.34 53.28 52.58 53.81 55.69 57.07 59.08 60.47 59.98 58.62 58.64 59.49 59.70 59.99 60.31 59.42 58.08 58.36 59.81 57.03 56.55 55.85 55.46 53.20 52.04 52.08 52.17 52.02 52.25
44.36 42.72 50.73 54.54 51.28 47.01 46.44 44.48 38.19 33.92 34.35 37.77 46.84 41.32 46.17 53.76 55.67 55.96 55.44 55.97 56.70 57.11 60.20 61.05 60.72 58.51 58.18 59.77 58.05 59.45 56.22 53.65 54.38 54.96 52.10 54.94 54.83 54.12 54.63 53.41 51.56 50.65 52.61 52.00
43.64 46.06 56.31 55.26 55.15 52.35 47.12 45.23 47.06 41.98 43.03 40.31 43.73 46.80 50.49 53.99 54.49 54.32 53.08 54.99 55.26 55.42 56.35 55.92 55.90 55.47 56.74 58.47 56.76 56.03 54.09 52.32 51.83 52.72 53.43 52.27 51.78 50.40 50.03 51.56 52.24 52.34 52.19 52.00
48.97 44.77 53.56 54.65 56.33 54.29 50.53 52.29 44.21 42.85 35.26 34.98 40.48 41.49 42.64 49.87 51.42 53.71 53.71 52.37 54.94 55.48 55.28 54.99 55.83 55.27 54.23 54.53 53.87 52.35 52.32 52.95 52.31 51.72 50.75 50.12 49.50 49.48 49.38 49.37 48.35 47.68 45.79 46.47
51.80 47.22 47.93 52.30 48.69 47.17 48.14 45.18 45.11 43.72 41.67 35.38 34.78 39.50 47.89 49.09 50.61 52.12 53.46 54.22 54.72 54.86 54.74 54.44 54.23 53.94 53.21 53.06 53.15 52.13 51.06 50.11 49.37 49.67 49.13 48.20 47.99 48.33 48.63 47.58 46.81 46.49 46.24 47.10
52.35 48.56 43.97 47.18 52.84 53.18 50.62 46.90 44.37 39.07 38.40 42.37 40.80 40.92 52.95 51.89 50.57 51.89 54.06 55.00 55.07 55.85 55.81 54.96 54.25 52.49 50.28 50.71 50.76 48.96 48.74 48.32 48.10 48.80 48.85 47.98 47.28 46.65 47.14 47.02 46.65 47.08 47.42 47.64
52.24 46.79 41.94 42.24 46.98 51.90 49.66 49.99 48.01 44.71 42.90 40.28 38.19 39.79 51.89 52.77 50.76 49.32 50.24 49.94 54.96 55.17 53.76 51.60 50.69 48.71 49.83 49.76 48.97 48.51 48.14 47.70 47.74 47.40 46.52 46.34 46.21 45.77 47.14 46.02 47.15 47.13 46.46 46.32
54.51 48.03 45.64 41.89 44.09 48.59 47.24 50.39 50.89 45.96 39.38 40.97 42.36 45.25 48.12 49.54 48.88 47.18 48.29 49.13 49.66 50.19 50.03 48.17 48.42 49.29 49.51 49.34 48.67 48.25 47.70 48.03 47.78 47.49 46.75 46.00 44.91 47.13 45.47 46.92 46.29 46.16 46.54 46.48
51.60 46.02 48.42 49.08 51.46 50.89 50.80 50.88 50.34 48.85 48.28 45.05 46.71 46.70 48.63 49.02 45.68 45.67 48.23 49.35 49.73 48.15 48.26 47.77 47.95 47.16 47.85 47.79 48.02 47.90 47.89 47.75 47.63 47.39 46.64 45.49 47.34 46.98 46.61 46.50 46.40 46.76 46.07 46.18
50.18 44.49 48.39 47.75 50.20 49.22 49.34 52.27 51.96 51.56 50.76 48.52 49.56 45.37 50.68 50.06 46.10 46.34 46.73 47.88 47.64 47.47 48.33 47.36 48.07 48.07 47.47 47.75 47.77 47.90 47.87 47.63 47.20 46.43 46.60 47.74 47.02 47.22 47.01 46.10 46.21 44.93 44.51 45.53
48.37 46.83 44.73 43.09 47.41 48.03 45.28 49.87 51.27 51.21 51.43 49.78 43.31 45.82 47.78 45.38 46.67 45.55 45.68 46.69 47.17 47.60 48.36 48.55 48.08 47.48 47.39 47.68 48.42 46.70 47.03 47.95 47.48 47.74 48.91 48.54 47.39 47.37 46.71 46.22 45.82 43.93 44.03 44.43
49.36 48.16 45.57 42.40 46.03 39.19 48.29 54.94 54.06 51.97 52.25 52.75 49.30 46.60 46.95 46.32 46.49 46.50 45.13 45.99 47.89 49.02 48.90 48.57 47.77 47.30 47.22 47.13 47.15 47.04 47.64 47.65 48.27 47.94 49.24 48.60 47.83 47.21 46.78 45.49 44.85 43.78 43.25 43.88
52.18 48.31 42.69 41.95 40.46 45.10 49.40 51.79 52.00 49.38 48.36 52.33 48.98 48.18 47.69 48.56 47.80 47.20 49.70 48.36 48.01 48.26 48.47 47.92 47.22 47.32 47.21 47.50 48.45 47.58 47.56 47.82 48.11 48.87 48.41 48.64 48.50 47.35 47.01 45.78 44.97 43.87 42.89 43.93
51.97 51.17 47.68 43.97 40.03 39.39 48.54 52.91 55.96 55.11 43.94 51.03 49.97 47.60 47.53 46.57 41.63 43.45 47.69 50.01 49.22 49.25 48.98 48.64 48.81 48.63 47.61 47.61 48.00 48.00 47.72 47.50 48.32 49.53 49.24 49.41 48.53 47.73 46.61 45.93 44.61 43.41 44.10 45.24
46.16 44.47 44.38 44.07 41.91 46.72 53.17 55.03 56.49 45.04 44.57 51.89 51.26 49.33 46.98 44.45 45.71 47.44 48.38 47.96 48.84 49.08 49.66 49.97 49.24 48.73 48.48 48.56 48.02 46.98 47.23 47.24 49.07 49.66 50.09 48.99 48.41 47.48 46.80 46.12 43.73 43.51 44.66 45.59
44.66 42.98 41.10 43.18 42.30 41.43 55.18 54.51 49.49 51.95 51.73 51.12 49.46 48.10 47.79 47.87 49.09 48.75 48.40 47.89 48.60 49.23 49.89 50.33 48.20 47.97 49.06 49.12 47.86 47.60 46.77 49.24 49.26 50.14 49.45 48.18 47.92 48.75 48.85 45.70 44.32 43.78 44.40 44.61
42.36 45.89 43.29 45.70 45.93 51.37 54.82 52.55 53.02 51.18 48.85 49.32 49.28 49.32 49.58 48.81 47.98 48.53 48.11 47.81 48.79 49.27 49.49 50.34 49.14 48.83 48.53 49.10 48.61 47.40 48.98 48.79 49.74 49.73 48.67 47.35 47.67 47.71 47.76 46.60 44.65 43.05 43.76 43.47
49.17 51.65 48.36 48.44 52.12 51.74 53.54 52.31 50.23 50.81 49.42 50.04 50.60 50.35 49.64 47.78 48.40 48.31 48.10 47.52 48.02 49.03 49.40 50.04 49.85 49.44 48.67 48.81 49.38 49.69 49.74 50.14 50.39 48.49 48.12 47.46 46.47 46.45 46.85 46.57 44.80 43.47 43.27 43.13
49.72 51.89 50.57 50.68 50.70 52.15 52.09 51.12 50.08 50.26 50.85 50.93 50.78 51.18 50.00 48.52 47.97 48.18 47.94 48.14 49.38 49.71 50.40 50.50 51.36 50.94 51.00 50.73 51.25 51.04 50.66 49.94 48.80 48.53 47.79 47.32 46.78 46.23 46.35 45.91 45.66 45.72 45.51 44.60
51.85 50.42 48.25 48.18 51.59 49.27 48.70 53.43 53.70 51.68 51.70 52.18 51.10 52.47 53.37 51.69 50.00 49.27 49.39 51.05 50.01 51.26 51.83 52.18 52.09 52.17 52.50 51.81 51.71 52.49 52.02 50.81 49.17 47.59 47.28 47.45 46.66 46.04 46.79 46.26 46.76 44.40 44.12 42.93
MSLP
1008.85 1010.18 1011.02 1011.04 1010.77 1010.34 1010.69 1010.82 1010.58 1009.77 1009.18 1009.59 1011.49 1012.59 1012.92 1012.90 1012.87 1012.38 1012.23 1012.79 1013.72 1013.41 1013.55 1013.95 1013.71 1013.33 1014.11 1016.19 1016.49 1016.39 1016.39 1016.33 1016.69 1017.07 1017.09 1017.29 1017.20 1016.72 1016.90 1016.75 1016.86 1017.31 1017.08 1016.68
1009.56 1010.28 1010.24 1010.25 1010.00 1010.30 1010.22 1010.36 1010.14 1009.57 1009.03 1010.16 1011.84 1013.18 1013.39 1013.49 1013.24 1013.32 1013.21 1013.30 1013.83 1013.73 1014.01 1014.46 1014.54 1014.21 1014.60 1015.10 1015.69 1016.14 1016.66 1016.96 1016.99 1016.93 1017.22 1017.17 1017.17 1017.08 1016.86 1016.41 1016.48 1016.83 1016.82 1016.35
1009.83 1009.95 1009.45 1009.38 1009.42 1009.82 1009.87 1010.08 1009.84 1009.86 1009.71 1010.67 1012.19 1013.47 1013.88 1013.49 1013.44 1013.44 1013.35 1013.28 1013.66 1013.97 1014.21 1014.43 1014.56 1014.65 1015.08 1015.81 1016.03 1016.55 1016.75 1016.87 1017.03 1017.14 1017.52 1017.25 1017.21 1016.95 1016.96 1016.69 1016.83 1016.32 1016.45 1016.40
1009.50 1009.01 1008.61 1008.65 1008.96 1008.80 1009.58 1008.90 1009.32 1009.70 1010.47 1011.27 1011.90 1013.58 1013.48 1013.19 1013.16 1013.06 1012.98 1012.72 1012.94 1013.37 1013.95 1014.41 1014.95 1015.34 1015.99 1015.94 1016.18 1016.70 1017.13 1017.09 1017.01 1016.84 1016.79 1016.69 1016.66 1016.87 1016.97 1016.91 1016.81 1016.72 1016.39 1016.73
1008.51 1008.58 1008.42 1008.48 1008.01 1007.76 1008.74 1008.60 1009.33 1009.87 1010.84 1011.96 1012.64 1013.62 1013.65 1013.48 1013.17 1012.92 1012.96 1013.24 1012.90 1013.32 1013.83 1014.43 1014.96 1015.34 1015.80 1016.18 1016.50 1016.93 1017.05 1016.87 1016.85 1017.00 1016.48 1016.78 1016.84 1017.12 1017.10 1017.37 1017.52 1017.36 1017.04 1017.00
1007.85 1007.33 1007.60 1007.18 1007.00 1007.84 1008.37 1009.13 1009.97 1010.72 1012.02 1013.45 1013.65 1014.22 1014.28 1013.78 1013.48 1013.15 1013.63 1013.63 1014.02 1014.19 1014.68 1015.13 1015.55 1015.84 1016.33 1016.68 1017.01 1017.12 1017.03 1017.15 1017.03 1017.08 1016.83 1016.87 1017.52 1017.50 1017.66 1017.91 1017.81 1017.28 1017.40 1017.25
1007.66 1007.32 1006.86 1006.81 1007.43 1007.77 1009.00 1010.22 1011.52 1012.72 1013.81 1014.72 1014.40 1014.45 1013.99 1013.12 1012.93 1013.20 1013.77 1014.55 1014.89 1014.89 1015.00 1015.53 1015.77 1016.21 1016.41 1016.65 1016.73 1016.73 1016.63 1016.70 1016.76 1016.85 1016.95 1017.17 1017.44 1017.64 1018.12 1017.77 1017.63 1017.44 1017.21 1017.01
1008.23 1007.85 1007.19 1007.06 1007.39 1008.36 1009.32 1010.69 1012.62 1013.83 1015.21 1015.39 1014.79 1014.47 1013.28 1012.75 1012.93 1013.07 1013.93 1014.96 1015.38 1015.40 1015.54 1015.65 1015.88 1016.16 1016.25 1016.35 1016.45 1016.64 1016.73 1016.72 1016.77 1016.98 1017.22 1017.46 1017.80 1017.76 1017.82 1017.82 1017.85 1017.75 1017.64 1017.36
1008.77 1008.43 1007.45 1007.44 1007.42 1008.18 1009.66 1011.17 1012.75 1014.81 1015.57 1015.87 1014.80 1014.67 1013.43 1012.88 1012.95 1013.34 1014.61 1015.88 1015.76 1015.97 1016.01 1016.00 1016.22 1016.12 1016.20 1016.38 1016.58 1016.58 1016.59 1016.89 1017.23 1017.65 1017.85 1017.75 1017.84 1017.83 1017.84 1017.77 1017.68 1017.59 1017.48 1017.23
1010.23 1009.89 1009.02 1008.31 1008.14 1008.79 1009.27 1010.92 1013.21 1015.38 1016.16 1015.98 1015.19 1014.84 1013.75 1013.34 1013.17 1013.98 1015.02 1015.74 1015.90 1016.11 1016.10 1015.98 1016.25 1016.23 1016.25 1016.44 1016.65 1016.94 1017.06 1017.35 1017.59 1017.76 1017.86 1017.99 1017.88 1017.74 1017.64 1017.67 1017.66 1017.60 1017.27 1016.83
1010.95 1011.26 1010.82 1009.87 1010.12 1010.19 1010.78 1011.69 1013.38 1014.72 1015.65 1015.81 1015.70 1014.91 1013.17 1013.30 1013.40 1014.28 1014.74 1015.18 1015.77 1016.16 1016.09 1016.04 1016.12 1016.18 1016.35 1016.65 1017.04 1017.42 1017.42 1017.55 1017.94 1017.98 1017.98 1017.83 1017.77 1017.57 1017.49 1017.57 1017.57 1017.19 1016.89 1016.76
1012.23 1012.82 1012.38 1012.19 1011.28 1011.09 1011.14 1011.87 1013.21 1014.81 1015.49 1015.60 1015.25 1013.98 1012.54 1012.70 1013.38 1013.76 1014.37 1014.95 1015.48 1015.53 1015.57 1015.80 1016.03 1016.33 1016.61 1016.89 1017.09 1017.47 1017.52 1017.59 1017.80 1017.79 1017.73 1017.65 1017.43 1017.31 1017.44 1017.40 1017.18 1017.04 1017.03 1016.55
1012.16 1013.07 1013.32 1012.59 1012.30 1011.53 1011.36 1012.04 1012.72 1013.55 1014.27 1014.82 1014.81 1013.36 1012.45 1012.53 1013.05 1013.58 1013.79 1014.52 1015.03 1015.35 1015.65 1016.04 1016.23 1016.59 1016.69 1016.91 1017.17 1017.42 1017.48 1017.52 1017.52 1017.42 1017.36 1017.19 1017.17 1017.28 1017.39 1017.30 1017.13 1016.97 1016.70 1016.28
1012.36 1013.28 1013.45 1013.31 1012.70 1012.42 1011.73 1011.36 1011.52 1012.78 1013.40 1013.39 1013.22 1012.84 1012.62 1012.72 1013.13 1013.45 1013.61 1013.91 1014.47 1015.00 1015.54 1015.79 1016.35 1016.69 1016.80 1016.90 1017.08 1017.24 1017.24 1017.13 1017.06 1016.98 1016.93 1016.94 1017.14 1017.11 1017.13 1017.01 1016.90 1016.66 1016.21 1015.85
1012.71 1013.39 1013.27 1013.18 1012.59 1012.14 1011.16 1010.85 1010.55 1011.50 1011.57 1012.12 1011.53 1011.89 1011.86 1012.29 1012.84 1013.03 1013.23 1013.80 1014.22 1014.73 1015.29 1015.69 1016.21 1016.65 1016.72 1016.80 1016.89 1016.95 1016.92 1016.87 1016.68 1016.75 1016.68 1016.83 1016.73 1016.81 1016.74 1016.70 1016.53 1016.13 1015.56 1015.22
1013.52 1013.58 1013.53 1013.16 1012.35 1012.14 1011.28 1010.35 1010.49 1010.75 1010.51 1010.39 1010.74 1011.30 1011.36 1012.12 1012.69 1013.04 1013.28 1013.66 1014.34 1014.93 1015.08 1015.56 1015.98 1016.44 1016.71 1016.74 1016.87 1016.80 1016.67 1016.56 1016.44 1016.48 1016.41 1016.42 1016.60 1016.56 1016.43 1016.33 1016.03 1015.66 1015.16 1014.81
1014.09 1014.34 1014.27 1013.28 1012.49 1011.68 1011.03 1010.47 1010.26 1010.08 1009.52 1010.28 1010.99 1010.84 1011.22 1012.10 1012.55 1012.83 1013.28 1013.47 1013.98 1014.49 1014.94 1015.48 1015.92 1016.27 1016.48 1016.51 1016.37 1016.42 1016.25 1016.19 1016.19 1016.11 1016.12 1016.13 1016.22 1016.26 1016.04 1015.83 1015.60 1015.31 1015.01 1014.68
1014.48 1014.44 1014.37 1014.10 1013.36 1012.42 1011.51 1011.31 1010.94 1010.88 1010.60 1010.34 1010.41 1010.61 1010.85 1011.51 1012.03 1012.30 1012.72 1013.28 1014.14 1014.55 1015.03 1015.43 1015.53 1015.88 1016.18 1016.07 1015.98 1015.86 1015.82 1015.81 1015.78 1015.72 1015.82 1015.91 1015.89 1015.75 1015.55 1015.36 1015.23 1014.97 1014.72 1014.55
1014.51 1014.65 1014.86 1014.95 1014.36 1013.13 1011.66 1012.58 1012.73 1012.46 1010.92 1010.12 1010.68 1010.85 1011.36 1012.10 1012.47 1013.23 1013.20 1013.56 1014.09 1014.65 1015.13 1015.39 1015.49 1015.60 1015.71 1015.68 1015.47 1015.53 1015.52 1015.44 1015.52 1015.33 1015.44 1015.46 1015.44 1015.24 1015.11 1014.86 1014.68 1014.50 1014.53 1014.15
1014.46 1014.83 1015.48 1015.56 1014.98 1013.76 1013.29 1012.54 1012.15 1012.11 1011.53 1010.78 1010.88 1011.31 1011.79 1012.29 1013.40 1013.93 1013.70 1013.79 1014.28 1014.36 1014.66 1014.97 1015.06 1015.07 1015.31 1015.16 1015.13 1015.12 1015.08 1015.03 1015.06 1014.72 1014.62 1014.66 1014.74 1014.72 1014.58 1014.36 1014.28 1014.09 1013.95 1013.75
1015.27 1015.61 1015.70 1015.46 1015.03 1013.95 1012.64 1012.65 1012.60 1012.19 1012.31 1011.18 1011.10 1011.36 1011.78 1012.43 1012.81 1013.00 1013.52 1013.79 1013.71 1013.71 1014.06 1014.10 1014.35 1014.56 1014.45 1014.42 1014.52 1014.71 1014.58 1014.54 1013.87 1013.75 1013.79 1013.92 1013.92 1014.05 1013.89 1013.84 1013.75 1013.77 1013.61 1013.24
1015.87 1015.88 1015.83 1015.63 1014.34 1013.14 1012.38 1012.53 1012.16 1011.93 1011.62 1011.22 1011.28 1011.56 1011.86 1012.20 1012.44 1012.98 1013.39 1013.59 1013.77 1013.62 1013.52 1013.57 1013.80 1014.01 1013.61 1013.67 1014.00 1014.06 1014.08 1013.17 1013.15 1013.17 1013.27 1013.42 1013.30 1013.31 1013.29 1013.52 1013.26 1013.35 1013.34 1013.05
1015.73 1015.46 1015.48 1015.38 1013.91 1012.44 1011.92 1011.80 1011.39 1011.13 1011.11 1011.20 1011.47 1011.79 1011.98 1012.28 1012.36 1012.61 1013.15 1013.53 1013.44 1013.14 1012.97 1012.88 1013.09 1013.11 1012.87 1012.91 1013.01 1013.25 1012.51 1012.52 1012.56 1012.71 1012.64 1012.68 1012.64 1012.67 1012.66 1012.89 1012.84 1012.96 1012.89 1012.82
1015.62 1015.38 1015.37 1014.99 1013.35 1012.57 1012.01 1011.65 1011.18 1011.07 1011.20 1011.19 1011.24 1011.55 1011.75 1012.07 1012.09 1012.19 1012.45 1012.83 1012.86 1012.66 1012.75 1012.39 1012.41 1012.56 1012.43 1012.12 1012.11 1011.93 1011.51 1011.46 1011.84 1011.97 1012.14 1012.09 1012.22 1012.17 1012.12 1012.04 1012.24 1012.35 1012.27 1012.34
1015.92 1015.53 1015.65 1014.92 1013.71 1012.63 1012.28 1011.63 1011.27 1011.27 1011.26 1011.30 1011.25 1011.30 1011.45 1011.56 1011.70 1011.79 1011.95 1012.22 1012.13 1012.02 1011.88 1011.91 1011.81 1012.07 1011.81 1011.30 1011.12 1010.84 1010.77 1010.94 1011.22 1011.24 1011.29 1011.50 1011.52 1011.50 1011.48 1011.36 1011.32 1011.36 1011.11 1011.03
1015.17 1015.06 1015.54 1014.80 1013.74 1013.22 1013.52 1012.25 1012.19 1011.60 1011.89 1011.70 1011.68 1011.69 1011.63 1011.71 1011.85 1011.83 1011.83 1011.59 1011.77 1011.85 1012.04 1011.54 1011.25 1011.18 1010.95 1010.69 1010.62 1010.23 1009.94 1010.12 1010.32 1010.60 1010.59 1010.64 1010.72 1010.71 1010.72 1010.66 1010.49 1010.09 1010.03 1009.98
Wind_Speed
3 7 1 5 2 7 5 4 5 12 11 2 8 4 5 6 5 7 9 7 7 4 8 5 11 10 13 10 11 8 9 7 4 3 1 3 2 3 3 6 11 11 6 6
6 4 5 4 7 10 11 9 8 7 6 6 9 4 6 5 5 4 9 8 7 0 3 7 7 10 12 15 16 14 10 3 3 3 2 2 2 2 5 2 11 12 7 7
5 7 5 5 6 7 9 7 5 7 3 5 8 3 3 6 6 7 10 8 5 10 11 10 8 11 11 11 10 5 6 6 4 6 4 3 2 1 3 3 4 8 5 4
5 7 6 2 8 3 4 11 9 8 3 4 3 4 6 4 7 5 5 7 3 7 10 8 7 6 7 7 7 6 4 6 6 7 6 8 4 2 1 2 3 3 6 7
13 7 6 6 19 13 10 9 14 8 4 3 5 6 7 5 7 7 8 7 9 8 11 7 7 10 6 7 7 6 6 6 3 2 5 3 2 1 3 3 5 6 6 7
11 6 8 13 14 7 13 4 6 4 4 2 3 4 5 2 4 4 3 9 8 8 8 8 7 6 7 6 6 5 5 2 4 3 3 4 3 4 4 3 2 1 2 1
5 6 4 2 2 4 3 4 4 5 5 4 3 2 7 6 7 2 8 6 6 6 8 8 8 6 5 5 5 5 6 4 4 5 3 1 3 2 3 2 5 6 5 4
4 6 1 2 5 2 1 5 6 4 2 4 2 5 6 4 7 11 12 8 6 8 8 8 7 5 5 6 5 4 4 3 2 5 5 4 5 3 4 5 3 2 2 4
1 4 2 2 5 7 2 4 6 6 2 2 4 4 7 3 7 13 13 7 8 7 9 9 7 6 5 5 5 7 4 3 4 6 5 7 7 6 4 2 1 2 4 4
4 4 4 3 3 3 4 8 5 1 6 5 2 2 6 4 6 8 6 8 7 6 7 7 7 7 6 6 5 4 2 7 7 8 6 5 4 4 3 2 3 5 6 5
5 4 8 6 4 3 1 3 5 5 2 6 4 7 7 7 4 9 9 9 9 8 8 10 7 7 5 4 4 5 6 8 7 6 5 5 3 4 5 4 4 7 5 6
1 3 1 4 5 1 3 3 6 5 4 3 3 7 5 9 2 9 9 9 9 12 12 8 7 6 6 7 8 7 6 7 6 6 5 4 4 3 3 3 6 6 6 7
3 1 4 8 7 3 2 2 3 4 4 6 6 7 4 4 3 7 11 9 12 11 7 6 6 6 7 7 7 7 7 7 6 5 4 4 5 4 4 5 6 6 7 7
6 5 7 7 8 4 5 5 6 6 3 3 6 4 4 5 6 6 6 9 9 10 9 7 8 7 7 7 7 7 6 6 5 4 4 6 4 4 4 4 5 6 6 7
5 3 4 4 10 8 7 7 11 7 12 6 6 9 12 9 9 8 7 7 7 6 8 8 8 7 7 7 6 5 5 5 5 5 6 4 4 5 3 5 6 6 6 6
4 2 1 3 4 12 12 13 13 15 10 2 8 1 6 5 5 6 8 9 7 8 8 7 7 7 6 7 7 6 6 5 5 5 6 4 6 5 5 5 6 6 7 7
2 2 1 5 4 7 6 6 5 3 5 6 5 7 6 6 7 8 8 8 9 8 7 9 9 8 7 8 8 7 6 4 4 5 4 6 6 5 5 5 4 7 7 6
1 3 1 3 3 1 3 2 9 5 2 4 2 6 10 9 6 6 4 8 8 8 7 7 6 5 6 5 6 5 6 5 5 6 4 6 6 5 4 3 5 6 4 5
2 2 2 1 2 6 3 8 5 6 4 4 3 5 5 7 7 7 4 4 6 7 6 6 6 6 5 7 8 7 6 5 5 7 5 7 7 5 4 4 6 6 4 4
3 4 1 1 3 1 3 3 7 11 2 3 7 4 7 4 3 4 4 7 8 8 7 7 7 6 7 8 7 7 7 6 7 7 6 8 7 7 6 6 6 4 4 5
4 2 2 2 2 4 5 1 5 2 3 2 3 3 3 3 6 5 7 6 8 8 9 7 8 8 10 8 8 8 7 8 9 7 5 7 7 7 7 5 3 4 6 5
2 1 3 2 2 1 6 1 1 6 2 2 3 4 7 5 4 4 7 7 8 8 8 9 7 8 9 8 7 9 9 11 7 7 6 7 7 6 4 6 6 5 5 5
2 5 2 5 5 4 7 3 4 5 3 2 4 2 6 5 3 2 7 8 9 10 9 8 8 9 9 8 8 9 13 7 8 7 7 7 7 6 6 4 7 4 3 4
2 2 3 6 3 5 4 2 4 4 4 3 4 6 7 6 7 7 7 8 8 7 8 8 7 8 9 8 9 13 10 8 7 8 8 7 7 7 6 4 4 4 5 5
3 3 4 6 6 6 4 2 5 5 4 2 3 7 8 8 8 8 7 8 7 8 6 5 7 7 9 9 10 11 10 7 8 8 7 7 6 6 6 6 5 5 7 7
4 6 4 3 6 6 3 8 8 6 7 7 5 7 6 5 8 7 7 6 5 5 6 6 7 7 9 8 9 9 8 8 9 7 6 6 6 6 5 5 5 9 13 9
Wind_Direction
323 68 71 278 234 188 195 256 280 284 285 100 104 91 310 318 303 292 300 318 91 122 206 162 168 130 120 127 105 91 226 194 165 226 52 51 69 43 29 4 310 297 255 238
346 126 219 298 358 353 324 313 293 284 309 109 125 151 229 264 280 287 292 290 140 82 76 155 142 148 142 155 150 168 225 215 180 103 92 132 135 76 247 198 277 285 241 223
186 215 228 39 317 289 275 221 242 236 1 60 144 155 242 244 260 258 257 261 193 174 142 146 124 149 160 133 144 168 151 139 107 120 134 96 57 96 280 285 281 277 256 292
185 216 194 221 321 275 279 255 264 281 41 260 155 255 316 336 311 255 337 266 202 165 129 143 144 155 95 133 111 125 133 153 156 181 158 166 173 170 237 257 331 344 38 34
240 207 222 186 235 252 235 268 267 275 216 114 352 83 271 346 337 343 20 7 33 105 127 140 122 116 131 102 122 132 145 137 135 205 147 153 138 265 309 323 337 5 15 11
235 209 172 213 241 261 267 254 337 47 91 24 308 126 268 282 266 298 38 36 40 71 95 102 99 117 93 107 123 153 169 129 158 201 151 135 244 257 327 331 241 58 281 358
303 272 339 130 121 318 46 78 339 357 22 232 262 35 234 256 266 353 139 62 15 47 68 81 84 91 108 115 155 156 146 153 160 160 116 220 295 289 184 37 19 8 360 351
188 336 154 194 140 179 30 128 160 218 173 256 106 231 248 229 313 95 92 108 95 77 87 85 92 118 142 139 136 125 126 147 127 71 37 62 111 91 55 49 42 357 281 319
119 270 283 149 162 119 198 75 133 99 328 245 180 263 303 43 39 110 120 152 118 117 123 133 151 149 137 151 168 179 183 63 57 97 94 76 78 91 106 140 196 304 301 265
9 353 321 217 76 7 160 148 85 338 178 231 246 260 232 204 158 131 142 151 144 147 149 148 176 187 187 170 193 71 61 108 104 99 107 117 141 137 172 199 246 261 270 287
21 113 302 19 351 239 31 94 61 127 146 174 177 252 206 216 198 173 182 157 158 169 178 187 191 206 183 167 131 127 116 111 106 127 152 162 170 195 208 221 259 268 293 303
275 121 48 269 265 334 283 154 132 134 233 252 170 263 196 192 213 174 170 171 180 178 193 192 193 185 160 144 122 137 127 118 140 165 177 202 230 263 288 262 278 306 297 286
170 156 341 338 335 316 117 180 150 133 106 197 158 257 208 192 229 192 159 168 180 194 201 187 166 146 143 132 136 140 146 150 166 171 196 254 276 296 236 268 291 300 290 289
141 170 170 222 233 237 270 226 185 161 160 199 228 182 188 194 198 180 161 153 163 175 162 151 138 153 152 151 154 157 160 162 173 204 248 268 289 249 231 261 284 281 286 295
127 201 172 245 286 232 238 276 264 254 245 212 230 175 200 185 177 171 161 158 153 133 144 152 151 167 161 156 155 154 164 180 195 235 260 289 243 197 221 267 278 288 312 301
356 265 151 248 20 345 301 236 247 257 258 332 157 203 164 164 150 151 151 153 161 180 170 148 157 158 176 172 174 179 182 206 216 260 280 236 174 206 239 268 286 303 320 318
164 135 241 265 356 352 322 304 265 304 73 139 161 214 141 147 172 168 183 166 169 166 144 148 160 173 179 180 179 186 198 210 247 274 294 177 191 220 249 261 286 301 312 318
201 158 101 274 10 91 127 336 22 311 69 307 155 161 156 171 196 198 176 146 144 143 138 154 160 169 192 199 198 194 200 214 245 279 205 195 205 222 251 264 276 279 289 301
162 139 99 100 327 307 41 43 19 333 360 243 179 148 112 108 68 18 116 120 138 137 146 165 178 184 205 201 206 200 209 229 261 272 218 214 220 226 244 264 269 278 274 287
40 57 53 106 250 74 320 286 9 314 311 79 111 121 143 127 105 243 156 129 134 142 156 173 189 183 202 227 215 194 219 224 245 252 243 211 219 227 239 254 257 261 251 266
340 11 159 159 215 260 255 233 172 34 241 329 111 134 137 126 195 186 167 176 171 167 185 191 191 207 222 222 202 219 228 230 232 240 244 209 215 231 237 262 231 258 282 290
260 173 206 256 243 94 157 211 163 207 294 66 84 121 105 119 114 176 197 183 187 195 209 211 207 228 239 223 196 228 229 237 235 241 227 216 222 232 234 233 259 265 281 283
320 186 210 196 234 271 169 234 223 171 126 64 113 110 123 133 159 126 191 203 216 214 217 222 212 228 237 229 205 221 238 230 232 234 231 219 224 235 233 237 252 268 266 249
298 314 30 353 308 231 175 182 75 64 101 113 126 162 170 179 198 203 192 215 225 229 234 237 233 237 245 231 225 226 236 222 218 220 234 224 221 243 250 247 231 240 249 250
202 29 332 317 274 68 11 128 135 100 86 89 171 185 204 200 226 217 225 234 233 238 250 248 236 251 245 238 231 232 232 209 219 221 222 226 221 231 247 242 230 224 236 197
215 153 154 266 302 116 320 32 326 57 5 329 343 336 321 221 263 259 254 235 246 256 274 257 251 249 255 253 251 251 228 207 213 217 220 220 218 226 231 235 270 233 233 238